Location: Arleux
(50.3632°N, 2.8721°E)
Time: 07:56:49
(UTC+00:00)

SL-23 DEB - Pass Details

Date: 15 December 2019
Orbit: 423 x 3606 km, 51.5° (Epoch: 21 January)

Event Time Altitude Azimuth Distance (km) Brightness Sun altitude
Exits shadow 06:03:54 25° 256° (WSW) 890 4.4 -14.6°
Maximum altitude 06:05:34 90° 216° (SW) 441 3.3 -14.3°
Drops below altitude 10° 06:09:10 10° 77° (ENE) 1,743 7.3 -13.8°
Sets 06:11:42 0° 77° (ENE) 2,876 8.5 -13.4°
